Time,TemperatureF,DewpointF,PressureIn,WindDirection,WindDirectionDegrees,WindSpeedMPH,WindSpeedGustMPH,Humidity,HourlyPrecipIn,Conditions,Clouds,dailyrainin,SoftwareType,DateUTC
2013-02-19 00:01:00,46.5,39.0,29.92,ENE,61,3.0,6.0,74,0.00,,,0.00,weatherlink.com 1.10,2013-02-19 08:01:00,
2013-02-19 00:16:00,46.3,38.0,29.92,NE,49,2.0,5.0,74,0.00,,,0.00,weatherlink.com 1.10,2013-02-19 08:16:00,
2013-02-19 00:31:00,46.4,39.0,29.92,ESE,103,2.0,8.0,74,0.00,,,0.00,weatherlink.com 1.10,2013-02-19 08:31:00,
2013-02-19 00:46:00,46.9,38.0,29.92,NNE,25,3.0,7.0,72,0.00,,,0.00,weatherlink.com 1.10,2013-02-19 08:46:00,
2013-02-19 01:01:00,47.1,38.0,29.92,ENE,58,3.0,5.0,72,0.00,,,0.00,weatherlink.com 1.10,2013-02-19 09:01:00,
2013-02-19 01:16:00,46.9,39.0,29.92,ENE,58,2.0,5.0,74,0.00,,,0.00,weatherlink.com 1.10,2013-02-19 09:16:00,
2013-02-19 01:31:00,46.9,39.0,29.92,ENE,58,4.0,7.0,74,0.00,,,0.00,weatherlink.com 1.10,2013-02-19 09:31:00,
2013-02-19 01:47:00,46.8,39.0,29.91,NW,320,2.0,7.0,74,0.00,,,0.00,weatherlink.com 1.10,2013-02-19 09:47:00,
2013-02-19 02:02:00,46.7,39.0,29.90,NNE,16,4.0,5.0,75,0.00,,,0.00,weatherlink.com 1.10,2013-02-19 10:02:00,
2013-02-19 02:17:00,46.7,40.0,29.90,NE,45,4.0,5.0,76,0.00,,,0.00,weatherlink.com 1.10,2013-02-19 10:17:00,
2013-02-19 02:32:00,46.6,39.0,29.89,ENE,64,0.0,2.0,76,0.00,,,0.00,weatherlink.com 1.10,2013-02-19 10:32:00,
2013-02-19 02:47:00,46.4,40.0,29.89,ENE,60,0.0,0.0,77,0.00,,,0.00,weatherlink.com 1.10,2013-02-19 10:47:00,
2013-02-19 03:02:00,45.4,40.0,29.89,ENE,60,0.0,0.0,80,0.00,,,0.00,weatherlink.com 1.10,2013-02-19 11:02:00,
2013-02-19 03:17:00,44.4,39.0,29.88,ENE,60,0.0,0.0,82,0.00,,,0.00,weatherlink.com 1.10,2013-02-19 11:17:00,
2013-02-19 03:32:00,44.0,40.0,29.87,ENE,60,0.0,0.0,84,0.00,,,0.00,weatherlink.com 1.10,2013-02-19 11:32:00,
2013-02-19 03:47:00,43.5,39.0,29.87,ENE,60,0.0,0.0,85,0.00,,,0.00,weatherlink.com 1.10,2013-02-19 11:47:00,
2013-02-19 04:02:00,42.7,39.0,29.87,ENE,60,0.0,0.0,87,0.00,,,0.00,weatherlink.com 1.10,2013-02-19 12:02:00,
2013-02-19 04:17:00,42.4,39.0,29.87,ENE,60,0.0,0.0,89,0.00,,,0.00,weatherlink.com 1.10,2013-02-19 12:17:00,
2013-02-19 04:32:00,42.8,41.0,29.87,ENE,60,0.0,0.0,92,0.00,,,0.00,weatherlink.com 1.10,2013-02-19 12:32:00,
2013-02-19 04:47:00,43.4,41.0,29.86,ENE,60,0.0,0.0,92,0.00,,,0.00,weatherlink.com 1.10,2013-02-19 12:47:00,
2013-02-19 05:02:00,43.9,42.0,29.86,SW,224,0.0,1.0,93,0.00,,,0.00,weatherlink.com 1.10,2013-02-19 13:02:00,
2013-02-19 05:17:00,44.4,42.0,29.85,WNW,294,0.0,1.0,92,0.02,,,0.02,weatherlink.com 1.10,2013-02-19 13:17:00,
2013-02-19 05:32:00,44.8,43.0,29.85,NNE,18,0.0,1.0,92,0.02,,,0.02,weatherlink.com 1.10,2013-02-19 13:32:00,
2013-02-19 05:47:00,44.8,43.0,29.84,North,1,0.0,0.0,93,0.02,,,0.02,weatherlink.com 1.10,2013-02-19 13:47:00,
2013-02-19 06:02:00,44.7,43.0,29.84,North,1,0.0,0.0,93,0.02,,,0.02,weatherlink.com 1.10,2013-02-19 14:02:00,
2013-02-19 06:17:00,44.6,43.0,29.83,North,1,0.0,0.0,93,0.00,,,0.02,weatherlink.com 1.10,2013-02-19 14:17:00,
2013-02-19 06:32:00,44.7,43.0,29.82,North,11,0.0,0.0,93,0.00,,,0.02,weatherlink.com 1.10,2013-02-19 14:32:00,
2013-02-19 06:47:00,44.2,42.0,29.81,North,11,0.0,0.0,93,0.00,,,0.02,weatherlink.com 1.10,2013-02-19 14:47:00,
2013-02-19 07:02:00,43.9,42.0,29.81,North,11,0.0,0.0,93,0.00,,,0.02,weatherlink.com 1.10,2013-02-19 15:02:00,
2013-02-19 07:17:00,44.1,43.0,29.81,North,11,0.0,0.0,94,0.02,,,0.04,weatherlink.com 1.10,2013-02-19 15:17:00,
2013-02-19 07:32:00,44.8,44.0,29.80,WNW,292,0.0,0.0,95,0.04,,,0.06,weatherlink.com 1.10,2013-02-19 15:32:00,
2013-02-19 07:47:00,45.3,44.0,29.80,WNW,291,0.0,1.0,94,0.04,,,0.06,weatherlink.com 1.10,2013-02-19 15:47:00,
2013-02-19 08:02:00,45.7,44.0,29.80,North,6,0.0,1.0,94,0.05,,,0.07,weatherlink.com 1.10,2013-02-19 16:02:00,
2013-02-19 08:17:00,46.1,44.0,29.79,NNE,30,0.0,1.0,92,0.04,,,0.08,weatherlink.com 1.10,2013-02-19 16:17:00,
2013-02-19 08:32:00,46.4,45.0,29.79,NNE,15,0.0,1.0,93,0.02,,,0.08,weatherlink.com 1.10,2013-02-19 16:32:00,
2013-02-19 08:47:00,46.1,44.0,29.79,NNE,17,0.0,3.0,91,0.08,,,0.14,weatherlink.com 1.10,2013-02-19 16:47:00,
2013-02-19 09:02:00,45.7,43.0,29.79,North,2,2.0,6.0,89,0.08,,,0.15,weatherlink.com 1.10,2013-02-19 17:02:00,
2013-02-19 09:17:00,44.7,41.0,29.79,NE,36,1.0,11.0,88,0.08,,,0.16,weatherlink.com 1.10,2013-02-19 17:17:00,
2013-02-19 09:32:00,44.2,41.0,29.79,NE,46,0.0,8.0,88,0.09,,,0.17,weatherlink.com 1.10,2013-02-19 17:32:00,
2013-02-19 09:48:00,44.9,42.0,29.78,ESE,114,0.0,6.0,89,0.03,,,0.17,weatherlink.com 1.10,2013-02-19 17:48:00,
2013-02-19 10:03:00,46.1,42.0,29.78,NE,41,6.0,11.0,84,0.03,,,0.18,weatherlink.com 1.10,2013-02-19 18:03:00,
2013-02-19 10:18:00,45.6,40.0,29.78,ENE,59,1.0,9.0,81,0.02,,,0.18,weatherlink.com 1.10,2013-02-19 18:18:00,
2013-02-19 10:33:00,46.5,41.0,29.77,NNE,13,0.0,6.0,80,0.01,,,0.18,weatherlink.com 1.10,2013-02-19 18:33:00,
2013-02-19 10:48:00,48.2,42.0,29.77,NNE,25,2.0,5.0,79,0.01,,,0.18,weatherlink.com 1.10,2013-02-19 18:48:00,
2013-02-19 11:03:00,49.1,41.0,29.77,WNW,296,1.0,6.0,73,0.00,,,0.18,weatherlink.com 1.10,2013-02-19 19:03:00,
2013-02-19 11:18:00,46.3,39.0,29.78,WNW,290,3.0,13.0,77,0.01,,,0.19,weatherlink.com 1.10,2013-02-19 19:18:00,
2013-02-19 11:33:00,45.6,39.0,29.77,East,91,1.0,13.0,79,0.01,,,0.19,weatherlink.com 1.10,2013-02-19 19:33:00,
2013-02-19 11:48:00,46.2,40.0,29.77,North,357,0.0,5.0,78,0.01,,,0.19,weatherlink.com 1.10,2013-02-19 19:48:00,
2013-02-19 12:03:00,46.3,39.0,29.76,North,1,4.0,7.0,76,0.01,,,0.19,weatherlink.com 1.10,2013-02-19 20:03:00,
2013-02-19 12:18:00,46.4,39.0,29.76,North,6,3.0,9.0,76,0.00,,,0.19,weatherlink.com 1.10,2013-02-19 20:18:00,
2013-02-19 12:33:00,46.4,39.0,29.75,NNE,28,1.0,7.0,75,0.00,,,0.19,weatherlink.com 1.10,2013-02-19 20:33:00,
2013-02-19 12:48:00,47.2,39.0,29.75,ENE,62,2.0,7.0,74,0.00,,,0.19,weatherlink.com 1.10,2013-02-19 20:48:00,
2013-02-19 13:03:00,47.6,39.0,29.74,North,8,2.0,11.0,73,0.00,,,0.19,weatherlink.com 1.10,2013-02-19 21:03:00,
2013-02-19 13:18:00,47.9,38.0,29.73,NE,49,2.0,6.0,68,0.00,,,0.19,weatherlink.com 1.10,2013-02-19 21:18:00,
2013-02-19 13:33:00,48.6,37.0,29.73,NNW,339,4.0,12.0,65,0.00,,,0.19,weatherlink.com 1.10,2013-02-19 21:33:00,
2013-02-19 13:48:00,48.0,36.0,29.73,NE,34,4.0,13.0,63,0.00,,,0.19,weatherlink.com 1.10,2013-02-19 21:48:00,
2013-02-19 14:03:00,49.6,37.0,29.73,South,171,0.0,8.0,62,0.00,,,0.19,weatherlink.com 1.10,2013-02-19 22:03:00,
2013-02-19 14:18:00,49.7,37.0,29.72,East,94,3.0,10.0,62,0.00,,,0.19,weatherlink.com 1.10,2013-02-19 22:18:00,
2013-02-19 14:33:00,49.5,35.0,29.72,NE,38,5.0,12.0,58,0.00,,,0.19,weatherlink.com 1.10,2013-02-19 22:33:00,
2013-02-19 14:48:00,49.5,34.0,29.72,North,354,3.0,12.0,55,0.00,,,0.19,weatherlink.com 1.10,2013-02-19 22:48:00,
2013-02-19 15:03:00,50.0,34.0,29.71,NE,51,6.0,11.0,55,0.00,,,0.19,weatherlink.com 1.10,2013-02-19 23:03:00,
2013-02-19 15:18:00,49.6,35.0,29.71,NNE,12,6.0,15.0,58,0.00,,,0.19,weatherlink.com 1.10,2013-02-19 23:18:00,
2013-02-19 15:33:00,49.3,35.0,29.71,NE,51,4.0,12.0,59,0.00,,,0.19,weatherlink.com 1.10,2013-02-19 23:33:00,
2013-02-19 15:48:00,49.4,34.0,29.71,ENE,77,2.0,12.0,55,0.00,,,0.19,weatherlink.com 1.10,2013-02-19 23:48:00,
2013-02-19 16:03:00,48.4,34.0,29.70,ENE,65,0.0,13.0,57,0.00,,,0.19,weatherlink.com 1.10,2013-02-20 00:03:00,
2013-02-19 16:18:00,47.6,34.0,29.71,NE,41,4.0,9.0,60,0.00,,,0.19,weatherlink.com 1.10,2013-02-20 00:18:00,
2013-02-19 16:33:00,46.8,35.0,29.71,North,6,1.0,10.0,64,0.00,,,0.19,weatherlink.com 1.10,2013-02-20 00:33:00,
2013-02-19 16:48:00,46.5,34.0,29.71,SW,223,1.0,12.0,62,0.00,,,0.19,weatherlink.com 1.10,2013-02-20 00:48:00,
2013-02-19 17:03:00,46.1,35.0,29.71,NNE,18,1.0,11.0,65,0.00,,,0.19,weatherlink.com 1.10,2013-02-20 01:03:00,
2013-02-19 17:18:00,45.5,34.0,29.71,NNW,335,2.0,10.0,65,0.00,,,0.19,weatherlink.com 1.10,2013-02-20 01:18:00,
2013-02-19 17:33:00,44.8,34.0,29.71,NE,47,1.0,7.0,65,0.00,,,0.19,weatherlink.com 1.10,2013-02-20 01:33:00,
2013-02-19 17:48:00,44.3,33.0,29.71,NNE,22,1.0,10.0,64,0.00,,,0.19,weatherlink.com 1.10,2013-02-20 01:48:00,
2013-02-19 18:03:00,43.6,33.0,29.72,ENE,64,2.0,9.0,66,0.00,,,0.19,weatherlink.com 1.10,2013-02-20 02:03:00,
2013-02-19 18:18:00,43.1,34.0,29.72,ENE,57,0.0,8.0,70,0.00,,,0.19,weatherlink.com 1.10,2013-02-20 02:18:00,
2013-02-19 18:33:00,42.8,34.0,29.72,NNE,12,1.0,7.0,72,0.00,,,0.19,weatherlink.com 1.10,2013-02-20 02:33:00,
2013-02-19 18:48:00,42.7,34.0,29.72,North,349,1.0,7.0,72,0.00,,,0.19,weatherlink.com 1.10,2013-02-20 02:48:00,
2013-02-19 19:03:00,42.8,34.0,29.73,North,11,4.0,7.0,70,0.00,,,0.19,weatherlink.com 1.10,2013-02-20 03:03:00,
2013-02-19 19:18:00,42.5,33.0,29.74,NNE,23,0.0,3.0,70,0.00,,,0.19,weatherlink.com 1.10,2013-02-20 03:18:00,
2013-02-19 19:33:00,41.5,33.0,29.74,WNW,303,0.0,2.0,73,0.00,,,0.19,weatherlink.com 1.10,2013-02-20 03:33:00,
2013-02-19 19:49:00,40.4,33.0,29.75,WSW,243,0.0,0.0,75,0.00,,,0.19,weatherlink.com 1.10,2013-02-20 03:49:00,
2013-02-19 20:04:00,38.9,33.0,29.75,SSE,150,0.0,1.0,79,0.00,,,0.19,weatherlink.com 1.10,2013-02-20 04:04:00,
2013-02-19 20:19:00,38.9,33.0,29.75,NW,309,2.0,4.0,79,0.00,,,0.19,weatherlink.com 1.10,2013-02-20 04:19:00,
2013-02-19 20:34:00,40.6,33.0,29.75,NNW,339,1.0,5.0,74,0.00,,,0.19,weatherlink.com 1.10,2013-02-20 04:34:00,
2013-02-19 20:49:00,41.0,33.0,29.76,South,180,1.0,3.0,72,0.00,,,0.19,weatherlink.com 1.10,2013-02-20 04:49:00,
2013-02-19 21:04:00,39.7,33.0,29.77,WSW,247,0.0,0.0,76,0.00,,,0.19,weatherlink.com 1.10,2013-02-20 05:04:00,
2013-02-19 21:19:00,38.3,32.0,29.77,WSW,245,0.0,0.0,79,0.00,,,0.19,weatherlink.com 1.10,2013-02-20 05:19:00,
2013-02-19 21:34:00,37.1,32.0,29.78,SSW,207,0.0,0.0,82,0.00,,,0.19,weatherlink.com 1.10,2013-02-20 05:34:00,
2013-02-19 21:49:00,37.5,32.0,29.78,WNW,286,0.0,2.0,81,0.00,,,0.19,weatherlink.com 1.10,2013-02-20 05:49:00,
2013-02-19 22:04:00,39.3,33.0,29.79,West,264,0.0,4.0,77,0.00,,,0.19,weatherlink.com 1.10,2013-02-20 06:04:00,
2013-02-19 22:19:00,40.4,33.0,29.78,WSW,251,1.0,7.0,74,0.00,,,0.19,weatherlink.com 1.10,2013-02-20 06:19:00,
2013-02-19 22:34:00,41.2,33.0,29.78,NNE,28,3.0,9.0,72,0.00,,,0.19,weatherlink.com 1.10,2013-02-20 06:34:00,
2013-02-19 22:49:00,41.7,33.0,29.79,NNW,330,2.0,8.0,70,0.00,,,0.19,weatherlink.com 1.10,2013-02-20 06:49:00,
2013-02-19 23:04:00,41.7,33.0,29.79,NNW,339,8.0,11.0,70,0.00,,,0.19,weatherlink.com 1.10,2013-02-20 07:04:00,
2013-02-19 23:19:00,41.9,32.0,29.79,NNW,342,7.0,13.0,69,0.00,,,0.19,weatherlink.com 1.10,2013-02-20 07:19:00,
2013-02-19 23:34:00,42.2,33.0,29.80,NNW,328,2.0,13.0,69,0.00,,,0.19,weatherlink.com 1.10,2013-02-20 07:34:00,
2013-02-19 23:49:00,42.2,32.0,29.80,ENE,75,1.0,13.0,68,0.00,,,0.19,weatherlink.com 1.10,2013-02-20 07:49:00,